Regional Weather Roundup
Issued by NWS

Home | Current Version | Previous Version | Text Only | Print | Product List | Glossary On
Versions: 1 2 3 4 5 6 7 8 9 10 11 12 13 14 15 16 17 18 19 20 21 22 23 24 25 26 27 28 29 30 31 32 33 34 35 36 37 38 39 40 41 42 43 44 45 46 47 48 49 50
000
ASUS43 KIND 240209
RWRIN

WEATHER ROUNDUP FOR INDIANA
NATIONAL WEATHER SERVICE INDIANAPOLIS IN
1000 PM EDT TUE MAY 23 2017

NOTE: "FAIR" INDICATES FEW OR NO CLOUDS BELOW 12,000 FEET WITH NO
SIGNIFICANT WEATHER AND/OR OBSTRUCTIONS TO VISIBILITY.

* - STATION DOES NOT REPORT WEATHER SUCH AS PRECIPITATION OR FOG.

+ - STATION NOT QUALITY CONTROLLED BY THE NATIONAL WEATHER SERVICE.
    USE DATA WITH CAUTION...ESPECIALLY DEWPOINT AND RELATIVE
    HUMIDITY OBSERVATIONS.

INZ001>003-010>013-019-020-240300-
NORTHWEST INDIANA

CITY           SKY/WX    TMP DP  RH WIND       PRES   REMARKS
GARY /AIRPORT/ LGT RAIN  57  54  88 N7        29.71S
KNOX *+        CLOUDY    61  48  63 NE6       29.68S
LA PORTE +     CLOUDY    60  55  84 W6        29.70R
MICHIGAN CITY+ CLOUDY    54  54 100 NW5       29.71R
MONTICELLO +   CLOUDY    62  56  79 N5        29.66S
RENSSELAER +   CLOUDY    59  54  82 N6        29.68S
VALPARAISO     CLOUDY    58  54  86 N6        29.70S

$$

LMZ046-743>745-240300-
SOUTHERN LAKE MICHIGAN

STATION/POSITION TIME  TEMP    WIND        PRES    WAVE
                       AIR SEA DIR/SP/G            HT
                 (UTC) (F)     (DEG/KT/KT) (MB)    (FT)
BURNS HARBOR     0140   56      20/ 14/ 17 1006.1F
MICHIGAN CITY    0140   53     300/ 11/ 12   N/A
5NW MICH CITY    0200   54 53  350/ 12/ 16   N/A     1

$$

INZ004-005-014>016-021>024-240300-
NORTH CENTRAL INDIANA

CITY           SKY/WX    TMP DP  RH WIND       PRES   REMARKS
GOSHEN         CLOUDY    60  55  83 NE7       29.69S
LOGANSPORT +   CLOUDY    63  54  72 N5        29.66F
PERU/GRISSOM   CLOUDY    64  54  70 NE6       29.64F
ROCHESTER +    CLOUDY    64  55  72 N5        29.67F
SOUTH BEND     CLOUDY    59  54  83 E6        29.69F
WARSAW +       CLOUDY    61  54  77 NE7       29.68F

$$

INZ006>009-017-018-025>027-240300-
NORTHEAST INDIANA

CITY           SKY/WX    TMP DP  RH WIND       PRES   REMARKS
ANGOLA *+      CLEAR     59  55  88 NE6       29.69F
AUBURN +       MOCLDY    61  52  72 NE8       29.68F
FORT WAYNE     CLOUDY    65  48  54 E6        29.66F
HUNTINGTON +   CLOUDY    63  49  60 N5        29.66F
KENDALLVILLE + CLOUDY    60  56  85 NE7       29.69F

$$

INZ028-029-035-036-043>045-051>053-240300-
WEST CENTRAL INDIANA

CITY           SKY/WX    TMP DP  RH WIND       PRES   REMARKS
CRAWFORDSVL +  CLOUDY    62  54  74 N3        29.65F
GREENCASTLE +  CLOUDY    63  50  63 CALM      29.65F
LAFAYETTE      CLOUDY    63  55  75 N6        29.64F
TERRE HAUTE    CLOUDY    66  57  72 CALM      29.65F

$$

INZ030>032-037>040-046>048-054>057-064-065-240300-
CENTRAL INDIANA

CITY           SKY/WX    TMP DP  RH WIND       PRES   REMARKS
CP ATTERBURY + CLOUDY    63  55  77 CALM      29.65F
COLUMBUS       MOCLDY    66  50  55 CALM      29.65F
FISHERS *+     MOCLDY    63  55  77 CALM      29.64F
FRANKFORT +    CLOUDY    67  55  65 N6        29.67S
INDIANAPOLIS   CLOUDY    66  48  52 SW6       29.64F
-EAGLE CREEK   CLOUDY    68  45  43 CALM      29.63F
KOKOMO +       CLOUDY    65  54  67 NE10      29.66S
MT COMFORT *+  MOCLDY    64  55  72 CALM      29.65S
SHELBYVILLE    CLOUDY    68  50  52 CALM      29.64F
ZIONSVILLE +   CLOUDY    64  53  66 CALM      29.65F

$$

INZ033-034-041-042-049-050-058-059-240300-
EAST CENTRAL INDIANA

CITY           SKY/WX    TMP DP  RH WIND       PRES   REMARKS
MUNCIE         MOCLDY    67  51  56 NE3       29.65F
RICHMOND +     CLOUDY    64  52  63 CALM      29.67S

$$

INZ060-061-067>069-081>083-085>088-240300-
SOUTHWEST INDIANA

CITY           SKY/WX    TMP DP  RH WIND       PRES   REMARKS
EVANSVILLE     CLOUDY    70  52  52 CALM      29.64F
HUNTINGBURG *+ CLOUDY    66  56  70 CALM      29.64F
WASHINGTON +   CLOUDY    67  53  61 CALM      29.64S

$$

INZ062-063-066-070>080-084-089>092-240300-
SOUTH CENTRAL AND SOUTHEAST INDIANA

CITY           SKY/WX    TMP DP  RH WIND       PRES   REMARKS
BEDFORD +      MOCLDY    64  54  68 CALM      29.64F
BLOOMINGTON    CLOUDY    65  56  72 CALM      29.64F
MADISON *+     CLOUDY    66  52  59 CALM      29.66S
NORTH VERNON + CLOUDY    64  57  77 CALM      29.65F

$$




USA.gov is the U.S. government's official web portal to all federal, state and local government web resources and services.